Location: Zagreb
(45.8000°N, 16.0000°E)
Time: 13:34:42
(UTC+01:00)

ISS - Visible Passes

Search period start: 05 December 2016 00:00
Search period end: 15 December 2016 00:00
Orbit: 401 x 410 km, 51.6° (Epoch: 05 December)

Date Brightness Start Highest point End Pass type
(mag) Time Alt. Az. Time Alt. Az. Time Alt. Az.
05 Dec -3.3 17:26:24 10° WSW 17:29:42 83° NNW 17:31:29 25° ENE visible
05 Dec -0.2 19:03:32 10° WNW 19:04:10 14° WNW 19:04:10 14° WNW visible
06 Dec -2.2 18:11:19 10° W 18:14:17 36° NNW 18:14:17 36° NNW visible
07 Dec -2.7 17:19:06 10° W 17:22:19 47° NNW 17:24:22 19° NE visible
07 Dec -0.3 18:56:23 10° WNW 18:57:03 14° NW 18:57:03 14° NW visible
08 Dec -2.0 18:04:11 10° WNW 18:07:06 29° N 18:07:06 29° N visible
09 Dec -2.2 17:11:56 10° W 17:14:58 33° NNW 17:17:09 16° NE visible
09 Dec -0.5 18:49:02 10° NW 18:49:49 15° NW 18:49:49 15° NW visible
10 Dec -2.0 17:56:55 10° WNW 17:59:50 28° N 17:59:52 28° N visible
11 Dec -2.0 17:04:42 10° WNW 17:07:38 28° N 17:09:57 14° NE visible
11 Dec -0.8 18:41:31 10° NW 18:42:37 18° NW 18:42:37 18° NW visible
12 Dec -2.4 17:49:28 10° NW 17:52:29 32° N 17:52:43 32° NNE visible
13 Dec -2.1 16:57:19 10° WNW 17:00:16 29° N 17:02:52 12° ENE visible
13 Dec -1.4 18:33:52 10° WNW 18:35:33 27° NW 18:35:33 27° NW visible
14 Dec -2.9 17:41:50 10° NW 17:45:01 44° NNE 17:45:46 37° ENE visible
14 Dec 0.3 19:18:24 10° WNW 19:18:27 10° WNW 19:18:27 10° WNW visible
